Victoria, British Columbia

5:07 AM PDT on July 28, 2017 (GMT -0700)
Victoria International

Weather History for CYYJ - February, 2013

Change the Weather History Date:

Monday, February 4, 2013

  Actual Average Record
Temperature  
Mean Temperature 44 °F -  
Max Temperature 47 °F 47 °F 55 °F (2011)
Min Temperature 40 °F 34 °F 26 °F (2014)
Degree Days  
Heating Degree Days 22    
Moisture  
Dew Point 41 °F    
Average Humidity 84    
Maximum Humidity 93    
Minimum Humidity 74    
Precipitation  
Precipitation 0.01 in 0.13 in - ()
Sea Level Pressure  
Sea Level Pressure 30.06 in    
Wind  
Wind Speed 7 mph ()    
Max Wind Speed 15 mph    
Max Gust Speed 18 mph    
Visibility 16.8 miles    
Events Rain    
Averages and records for this station are not official NWS values.
T = Trace of Precipitation, MM = Missing Value Source: Averaged Metar Reports

Daily Weather History Graph

Daily Weather History Graph

Search for Another Location

Airport or City:

Trip Planner

Search our weather history database for the weather conditions in past years. The results will help you decide how hot, cold, wet, or windy it might be!

Date:

Astronomy

Feb. 04, 2013 Rise Set
Actual Time 7:38 AM PST 5:17 PM PST
Civil Twilight 7:05 AM PST 5:51 PM PST
Nautical Twilight 6:27 AM PST 6:28 PM PST
Astronomical Twilight 5:50 AM PST 7:05 PM PST
Moon 2:27 AM PST (2/4) 11:38 AM PST (2/4)
Length of Visible Light 10h 46m
Length of Day
9h 39m
Last Quarter, 36% of the Moon is Illuminated
Feb 4
Last Quarter
Feb 9
New
Feb 17
First Quarter
Feb 25
Full
Mar 4
Last Quarter

Hourly Weather History & Observations

Time (PST) Temp. Windchill Dew Point Humidity Pressure Visibility Wind Dir Wind Speed Gust Speed Precip Events Conditions
12:00 AM 41.0 °F 38.0 °F 39.2 °F 93% 30.17 in 30.0 mi SE 4.6 mph - N/A   Mostly Cloudy
1:00 AM 42.8 °F 40.1 °F 39.2 °F 87% 30.17 in 30.0 mi ESE 4.6 mph - N/A   Mostly Cloudy
3:00 AM 46.4 °F 41.5 °F 39.2 °F 76% 30.15 in 15.0 mi SSW 10.4 mph - N/A   Overcast
4:00 AM 45 °F - 40 °F 76% 30.14 in 15 mi South 12.7 mph - -   Overcast
4:00 AM 44.6 °F 38.8 °F 39.2 °F 81% 30.14 in 15.0 mi South 11.5 mph - N/A   Overcast
5:00 AM 44.6 °F 40.7 °F 41.0 °F 87% 30.14 in 12.0 mi SSE 6.9 mph - N/A   Overcast
6:00 AM 44.6 °F 38.8 °F 41.0 °F 87% 30.12 in 15.0 mi SSE 11.5 mph - N/A   Overcast
7:00 AM 44.6 °F 39.7 °F 41.0 °F 87% 30.12 in 15.0 mi SE 9.2 mph - N/A   Mostly Cloudy
8:00 AM 44.6 °F 40.2 °F 41.0 °F 87% 30.12 in 12.0 mi SE 8.1 mph - N/A   Mostly Cloudy
9:00 AM 44.6 °F 38.8 °F 41.0 °F 87% 30.12 in 15.0 mi SSE 11.5 mph 18.4 mph N/A   Mostly Cloudy
10:00 AM 45 °F - 41 °F 82% 30.12 in 15 mi SSE 12.7 mph - -   Overcast
10:00 AM 44.6 °F 38.4 °F 41.0 °F 87% 30.12 in 15.0 mi SSE 12.7 mph - N/A   Mostly Cloudy
11:00 AM 46.4 °F 40.7 °F 41.0 °F 81% 30.13 in 15.0 mi SSE 12.7 mph 18.4 mph N/A   Mostly Cloudy
12:00 PM 46.4 °F 40.1 °F 41.0 °F 81% 30.12 in 20.0 mi SE 15.0 mph - N/A   Mostly Cloudy
1:00 PM 46.4 °F 42.4 °F 41.0 °F 81% 30.12 in 20.0 mi SE 8.1 mph - N/A   Mostly Cloudy
2:00 PM 46.4 °F 41.9 °F 41.0 °F 81% 30.07 in 20.0 mi SE 9.2 mph - N/A   Mostly Cloudy
3:00 PM 46.4 °F 42.4 °F 41.0 °F 81% 30.04 in 20.0 mi SE 8.1 mph - N/A   Mostly Cloudy
4:00 PM 46 °F - 40 °F 74% 30.04 in 19 mi SE 6.9 mph - -   Overcast
4:00 PM 46.4 °F 42.9 °F 41.0 °F 81% 30.04 in 20.0 mi SE 6.9 mph - N/A   Overcast
5:00 PM 46.4 °F - 39.2 °F 76% 30.01 in 20.0 mi SE 2.3 mph - N/A   Overcast
6:00 PM 46.4 °F 45.2 °F 41.0 °F 81% 29.99 in 20.0 mi ESE 3.5 mph - N/A   Overcast
6:49 PM 46.4 °F 45.2 °F - N/A% - 20.0 mi East 3.5 mph - N/A Rain Light Rain
7:00 PM 44.6 °F 42.2 °F 41.0 °F 87% 29.96 in 20.0 mi East 4.6 mph - N/A Rain Light Rain
8:00 PM 44.6 °F 43.1 °F 41.0 °F 87% 29.94 in 20.0 mi NE 3.5 mph - N/A Rain Light Rain
8:20 PM 44.6 °F 41.4 °F - N/A% - 20.0 mi NE 5.8 mph - N/A   Overcast
9:00 PM 42.8 °F 37.5 °F 41.0 °F 93% 29.91 in 20.0 mi ENE 9.2 mph - N/A   Overcast
10:00 PM 45 °F - 42 °F 85% 29.89 in 15 mi Calm Calm - -   Partly Cloudy
10:00 PM 44.6 °F - 42.8 °F 93% 29.89 in 15.0 mi West 2.3 mph - N/A   Overcast
11:00 PM 44.6 °F 42.2 °F 41.0 °F 87% 29.86 in 5.0 mi WNW 4.6 mph - N/A   Overcast